Regional Weather Roundup
Issued by NWS Charleston, SC

Current Version | Previous Version | Graphics & Text | Print | Product List | Glossary On
Versions: 1 2 3 4 5 6 7 8 9 10 11 12 13 14 15 16 17 18 19 20 21 22 23 24 25 26 27 28 29 30 31 32 33 34 35 36 37 38 39 40 41 42 43 44 45 46 47 48 49 50
000
ASUS42 KCHS 220327
RWRCHS

REGIONAL WEATHER ROUNDUP
NATIONAL WEATHER SERVICE CHARLESTON SC
1100 PM EDT THU MAY 21 2015

NOTE: "FAIR" INDICATES FEW OR NO CLOUDS BELOW 12,000 FEET WITH NO
SIGNIFICANT WEATHER AND/OR OBSTRUCTIONS TO VISIBILITY.

NOT ALL STATIONS ARE QUALITY CONTROLLED BY THE NATIONAL
WEATHER SERVICE. USE DATA WITH CAUTION...ESPECIALLY
DEWPOINT OBSERVATIONS.

SCZ027-030-031-034>040-042>050-220400-
...SOUTHEAST SOUTH CAROLINA...

CITY           SKY/WX    TMP DP  RH WIND       PRES   REMARKS
N CHARLESTON   CLEAR     79  60  52 W6        29.90R
WATERFRONT PAR   N/A     82  63  52 VRB2      29.86R
MOUNT PLEASANT LGT RAIN  77  63  61 W5        29.90R
JOHNS ISLAND   CLEAR     73  64  73 W5        29.91R
PINOPOLIS        N/A     82  64  54 W8        29.80R
MONCKS CORNER  FAIR      73  61  64 CALM      29.91R
SUMMERVILLE    FAIR      72  64  78 W3        29.92R
BEAUFORT MCAS  CLEAR     79  62  56 W7        29.92R
BEAUFORT ARPT  FAIR      81  64  57 W8        29.91S
HILTON HEAD IS CLEAR     79  64  61 SW3       29.93S
WALTERBORO     CLEAR     73  61  64 W6        29.92S
ALLENDALE      FAIR      79  61  53 VRB3      29.93R

...SOUTHERN MIDLANDS AND PEE DEE...

CITY           SKY/WX    TMP DP  RH WIND       PRES   REMARKS
GEORGETOWN     NOT AVBL
KINGSTREE      NOT AVBL
ORANGEBURG     CLEAR     76  58  53 W6        29.92R
BARNWELL       FAIR      75  61  60 W6        29.95R
AIKEN          FAIR      70  54  56 W9        30.00R
MANNING        FAIR     N/A N/A N/A NW5       29.91R
COLUMBIA       CLEAR     77  56  48 W14       29.92R
SUMTER         CLEAR     77  58  52 W9        29.89R
FLORENCE       PTCLDY    71  64  78 E9        29.91R
MYRTLE BEACH   CLEAR     73  63  68 E7        29.93R
N MYRTLE BEACH PTCLDY    71  63  75 NE8       29.90R

$$

GAZ063-065-086>088-099>101-113>116-118-119-134>141-150-220400-
...SOUTHEAST GEORGIA...

CITY           SKY/WX    TMP DP  RH WIND       PRES   REMARKS
SAVANNAH ARPT  CLEAR     78  60  53 W6        29.94R
HUNTER AAF     CLEAR     75  64  68 W8        29.91R
FORT STEWART   CLEAR     79  62  55 W7        29.93R
STATESBORO     CLEAR     77  67  69 NW8       29.96R
SYLVANIA       CLEAR     78  65  66 NW7       29.96R
CLAXTON        FAIR      79  64  61 NW10      29.97R

...CSRA...CENTRAL AND FAR SOUTHEAST GEORGIA...

CITY           SKY/WX    TMP DP  RH WIND       PRES   REMARKS
THOMSON        CLEAR     71  59  66 W10       30.05R
AUGUSTA-BUSH   CLEAR     77  58  51 NW13      29.95R
AUGUSTA-DANIEL CLEAR     75  57  53 W9        29.97R
SWAINSBORO     FAIR      77  64  65 NW8       30.00R
VIDALIA        CLEAR     77  63  61 W7        29.99R
EASTMAN        FAIR      74  64  69 NW6       30.04R
HAZLEHURST     FAIR      77  63  61 W5        30.00R
ALMA           CLEAR     78  62  57 NW12      29.99R
WAYCROSS       CLEAR     79  65  62 NW12G17   29.99R
JESUP          FAIR      81  68  65 NW7       29.97R
BAXLEY         FAIR      79  63  57 NW8G16    29.99R
BRUNSWICK      CLEAR     79  61  53 W5        29.96R
SAINT SIMONS   NOT AVBL

$$

SCZ027-028-034-036>038-045-046-048>050-GAZ119-141-220400-
...LAKE AND SUPPLEMENTAL COASTAL OBSERVATIONS...

STATION/POSITION TIME  TEMP    WIND        PRES    WAVE   SWELL
                       AIR SEA DIR/SP/G            HT/PER HT/PER/DIR
                 (UTC) (F)     (DEG/KT/KT) (MB)    (FT/S) (FT/S/D)
UPR LAKE MARION  NOT AVBL
WINYAH BAY       0200   77     100/  6     1011.0R
LAKE MURRAY      0200   78     260/ 10/ 13 1011.9R
ACE BASIN NERRS  NOT AVBL
FORT PULASKI     0300   82 78  250/  6/  8 1013.8R
SAPELO ISLAND    0300   80     250/  5     1014.0R

$$

ANZ835-935-AMZ111-154-330-350-352-354-370-450-454-472-220400-
...C-MAN AND BUOY OBSERVATIONS...

STATION/POSITION TIME  TEMP    WIND        PRES    WAVE   SWELL
                       AIR SEA DIR/SP/G            HT/PER HT/PER/DIR
                 (UTC) (F)     (DEG/KT/KT) (MB)    (FT/S) (FT/S/D)
BUOY 41004       0250   78 76  220/ 14/ 17 1011.4R   3/ 5   2/ 9
BUOY 41008       0250   81 78  250/  8/ 10 1013.4R   2/ 4   2/110/ 9
FOLLY BEACH CMAN 0300   79     270/  3/  6 1012.6R
CAPERS NEARSHORE 0208   78     220/ 10/ 14 1011.7R
FRIPP NEARSHORE  NOT AVBL


STATION/POSITION TIME  TEMP    WIND        PRES    WAVE   SWELL
                       AIR SEA DIR/SP/G            HT/PER HT/PER/DIR
                 (UTC) (F)     (DEG/KT/KT) (MB)    (FT/S) (FT/S/D)
5E ST. MARYS GA  0221      80                N/A     1/ 4
FRYING PAN BUOY  0250   75 75   20/ 14/ 16 1012.3R   4/ 6   2/160/ 8
BUOY 41025       0250   69 76  320/ 25/ 29 1009.7R   4/ 4   2/ 90/ 9
CAPE LOOKOUT NC  0300   65     350/ 12/ 16 1011.6R
BUOY 41002       0250   76 75  230/ 16/ 19 1013.8R   4/ 6   2/130/ 8
BUOY 41010       0220   80 79  200/ 10/ 12 1015.6R
ST AUGUSTINE FL  0300   80 74  250/  6/  9 1015.7R


$$



USA.gov is the U.S. government's official web portal to all federal, state and local government web resources and services.